Flag for U.S.A. Weather past 2 weeks in Yonkers, New York, U.S.A.

Now
35 °F

Clear.


Feels Like: 27 °F
Forecast: 23 / 35 °F
Wind: 10 mph from Northwest

Location: Teterboro Airport

Current Time: Mar 2, 2015 at 6:48:02 PM

Latest Report: Mar 2, 2015 at 5:51 PM


Visibility: 10 mi

Pressure: 30.21 "Hg

Humidity: 35%

Dew point: 10 °F

Location of YonkersLocation

Historic Weather in Yonkers — Graph

°F

Yonkers temperature yesterday

Maximum temperature yesterday: 30 °F (at 11:51 AM)
Minimum temperature yesterday: 16 °F (at 12:51 AM)
Average temperature yesterday: 24 °F

Past Weeks' High & Low Weather Summary

 TemperatureHumidityPressure
High43 °F (Feb 22, 2:51 PM)93% (Feb 21, 5:54 PM)30.82 "Hg (Feb 21, 5:54 PM)
Low1 °F (Feb 20, 5:51 AM)26% (Feb 16, 12:51 PM)29.72 "Hg (Feb 19, 12:51 AM)
Average21 °F54%30.18 "Hg
* Reported Feb 15 4:51 PM — Mar 2 4:51 PM, Yonkers, Weather by CustomWeather, © 2015

Note: Actual official high and low records may vary slightly from our data, if they occured in-between our weather recording intervals... More about our weather records

Advertising

Yonkers weather history for previous 24 hours

 ConditionsComfort  
Time TempWeatherWind HumidityBarometerVisibility
4:51 PM
Mon, Mar 2
37 °FSunny.16 mph34%30.17 "Hg10 mi
3:51 PM38 °FSunny.20 mph36%30.15 "Hg10 mi
2:51 PM38 °FSunny.14 mph34%30.14 "Hg10 mi
1:51 PM38 °FSunny.14 mph34%30.13 "Hg10 mi
12:51 PM36 °FSunny.16 mph40%30.14 "Hg10 mi
11:51 AM34 °FSunny.20 mph44%30.15 "Hg10 mi
10:51 AM34 °FPassing clouds.25 mph50%30.15 "Hg10 mi
9:51 AM34 °FPartly sunny.15 mph59%30.12 "Hg10 mi
8:51 AM33 °FMostly cloudy.9 mph72%30.11 "Hg10 mi
7:51 AM31 °FOvercast.No wind82%30.09 "Hg6 mi
6:51 AM29 °FMostly cloudy.6 mph82%30.04 "Hg7 mi
5:51 AM29 °FOvercast.5 mph82%30.02 "Hg10 mi
4:51 AM29 °FOvercast.No wind82%30.02 "Hg10 mi
3:51 AM29 °FOvercast.No wind82%30.05 "Hg7 mi
2:51 AM28 °FOvercast.3 mph85%30.06 "Hg7 mi
1:51 AM27 °FMostly cloudy.No wind81%30.09 "Hg8 mi
12:51 AM26 °FOvercast.No wind84%30.12 "Hg8 mi
11:51 PM
Sun, Mar 1
26 °FMostly cloudy.No wind81%30.15 "Hg7 mi
10:51 PM26 °FMostly cloudy.No wind81%30.18 "Hg8 mi
9:59 PM27 °FLight freezing rain. Mostly cloudy.3 mph80%30.22 "Hg8 mi
8:51 PM26 °FLight snow. Overcast.No wind88%30.25 "Hg5 mi
7:59 PM25 °FLight snow. Overcast.No wind86%30.30 "Hg2 mi
6:51 PM25 °FLight snow. Overcast.No wind88%30.32 "Hg2 mi
Weather by CustomWeather, © 2015

See weather overviewHow to use our weather pages